Home   Weather   Murmansk   Past weeks

Flag for Russia Past Weather in Murmansk, Russia — Yesterday and Last 2 Weeks

Now
37 °F

Scattered clouds.


Feels Like: 31 °F
Forecast: 24 / 40 °F
Wind: 8 mph from North

Location: Murmansk Airport

Current Time: Apr 28, 2017 at 3:21:30 pm

Latest Report: Apr 28, 2017 at 2:30 pm


Visibility: N/A

Pressure: 30.24 "Hg

Humidity: 45%

Dew Point: 18 °F

Location of MurmanskLocation

Past Weather in Murmansk — Graph

°F

Murmansk Temperature Yesterday

Maximum temperature yesterday: 34 °F (at 11:30 am)
Minimum temperature yesterday: 28 °F (at 12:00 am)
Average temperature yesterday: 32 °F

High & Low Weather Summary for the Past Weeks

 TemperatureHumidityPressure
High41 °F (Apr 20, 2:00 pm)93% (Apr 16, 2:00 am)30.30 "Hg (Apr 16, 2:00 am)
Low0 °F (Apr 17, 4:00 am)21% (Apr 18, 5:30 pm)29.24 "Hg (Apr 21, 8:30 am)
Average28 °F66%29.83 "Hg
* Reported Apr 13 2:00 pm — Apr 28 2:00 pm, Murmansk, Weather by CustomWeather, © 2017

Note: Actual official high and low records may vary slightly from our data, if they occured in-between our weather recording intervals... More about our weather records

Advertising

Murmansk Weather History for the Previous 24 Hours

Scroll right to see more
 ConditionsComfort  
Time TempWeatherWind HumidityBarometerVisibility
2:00 pm
Fri, Apr 28
37 °FScattered clouds.8 mph48%30.24 "HgN/A
1:30 pm36 °FScattered clouds.8 mph48%30.21 "HgN/A
1:00 pm36 °FScattered clouds.8 mph48%30.21 "HgN/A
12:30 pm36 °FScattered clouds.8 mph48%30.21 "HgN/A
12:00 pm36 °FScattered clouds.6 mph48%30.18 "HgN/A
11:30 am36 °FScattered clouds.8 mph48%30.18 "HgN/A
10:30 am34 °FScattered clouds.8 mph51%30.15 "HgN/A
10:00 am34 °FScattered clouds.6 mph56%30.15 "HgN/A
9:30 am34 °FScattered clouds.6 mph56%30.12 "HgN/A
9:00 am34 °FScattered clouds.3 mph56%30.12 "HgN/A
8:30 am32 °FScattered clouds.No wind69%30.12 "HgN/A
8:00 am32 °FSnow flurries. Scattered clouds.3 mph69%30.09 "HgN/A
7:30 am32 °FPassing clouds.6 mph60%30.09 "HgN/A
7:00 am30 °FPassing clouds.3 mph64%30.07 "HgN/A
6:30 am30 °FPartly sunny.3 mph64%30.04 "HgN/A
6:00 am30 °FPartly sunny.3 mph69%30.04 "HgN/A
5:30 am30 °FPartly sunny.1 mph69%30.01 "HgN/A
5:00 am30 °FPartly sunny.6 mph69%30.01 "HgN/A
4:30 am28 °FSnow flurries. Partly sunny.3 mph80%30.01 "HgN/A
4:00 am30 °FPartly sunny.3 mph69%29.98 "HgN/A
3:00 am30 °FSnow flurries. Passing clouds.1 mph69%29.95 "HgN/A
2:30 am30 °FSnow flurries. Passing clouds.3 mph75%29.95 "HgN/A
2:00 am30 °FSnow flurries. Passing clouds.8 mph75%29.95 "HgN/A
1:30 am30 °FSnow flurries. Passing clouds.6 mph69%29.92 "Hg4 mi
1:00 am30 °FSnow flurries. Passing clouds.3 mph75%29.92 "HgN/A
12:30 am32 °FSnow flurries. Passing clouds.3 mph64%29.92 "HgN/A
12:00 am32 °FPassing clouds.3 mph69%29.89 "HgN/A
11:30 pm
Thu, Apr 27
32 °FSnow flurries. Passing clouds.6 mph69%29.89 "HgN/A
11:00 pm32 °FSnow flurries. Passing clouds.8 mph69%29.86 "Hg5 mi
10:30 pm32 °FSnow flurries. Passing clouds.8 mph69%29.86 "Hg6 mi
10:00 pm32 °FSnow flurries. Passing clouds.8 mph75%29.86 "Hg6 mi
9:30 pm32 °FSnow flurries. Partly sunny.6 mph80%29.83 "Hg5 mi
9:00 pm32 °FSnow flurries. Partly sunny.8 mph87%29.83 "Hg6 mi
8:30 pm32 °FSnow flurries. Partly sunny.8 mph87%29.80 "Hg5 mi
8:00 pm32 °FSnow flurries. Partly sunny.10 mph87%29.80 "Hg2 mi
7:30 pm32 °FSnow flurries. Partly sunny.8 mph87%29.77 "Hg2 mi
7:00 pm32 °FSnow flurries. Partly sunny.8 mph87%29.77 "Hg3 mi
6:30 pm32 °FSnow flurries. Partly sunny.10 mph87%29.77 "Hg4 mi
6:00 pm32 °FSnow flurries. Partly sunny.10 mph87%29.74 "Hg1 mi
5:30 pm32 °FSnow flurries. Partly sunny.15 mph80%29.74 "Hg2 mi
5:00 pm34 °FSnow flurries. Partly sunny.13 mph70%29.71 "Hg6 mi
4:30 pm34 °FPartly sunny.17 mph70%29.71 "HgN/A
4:00 pm34 °FPartly sunny.15 mph70%29.68 "HgN/A
3:30 pm34 °FPartly sunny.13 mph70%29.68 "HgN/A
3:00 pm34 °FPartly sunny.13 mph70%29.68 "HgN/A
Weather by CustomWeather, © 2017

See weather overviewHow to use our weather pages